Regional Weather Roundup
Issued by NWS

Home | Current Version | Previous Version | Graphics & Text | Print | Product List | Glossary Off
Versions: 1 2 3 4 5 6 7 8 9 10 11 12 13 14 15 16 17 18 19 20 21 22 23 24 25 26 27 28 29 30 31 32 33 34 35 36 37 38 39 40 41 42 43 44 45 46 47 48 49 50

000
ASUS43 KTOP 271259
RWRKS

WEATHER ROUNDUP FOR KANSAS
NATIONAL WEATHER SERVICE GOODLAND KS
800 AM CDT WED MAY 27 2015

NOTE:  "FAIR" INDICATES FEW OR NO CLOUDS BELOW 12,000 FEET WITH NO
SIGNIFICANT WEATHER AND/OR OBSTRUCTIONS TO VISIBILITY.

KSZ001>006-013>018-027>032-041>047-271400-
NORTHWEST KANSAS

CITY           SKY/WX    TMP DP  RH WIND       PRES   REMARKS
GOODLAND       CLOUDY    56  52  86 S8        30.07R
HAYS           PTSUNNY   59  50  72 CALM      30.07S
HILL CITY      PTSUNNY   56  53  90 CALM      30.08R
RUSSELL        PTSUNNY   62  56  80 E5        30.06S
$$

KSZ061>065-074>080-084>089-271400-
SOUTHWEST KANSAS

CITY           SKY/WX    TMP DP  RH WIND       PRES   REMARKS
DODGE CITY     CLOUDY    61  58  90 S6        30.07R
ELKHART          N/A     61  55  81 S8          N/A
GARDEN CITY    CLOUDY    61  57  87 S3        30.06R
GREAT BEND     PTSUNNY   63  54  72 E6        30.06F
LIBERAL        MOSUNNY   61  57  88 S7        30.08S
$$

KSZ066>073-081>083-090>101-271400-
SOUTHEAST KANSAS

CITY           SKY/WX    TMP DP  RH WIND       PRES   REMARKS
CHANUTE        SUNNY     68  65  90 N3        30.07F
COFFEYVILLE    PTSUNNY   67  65  93 CALM      30.06S
HUTCHINSON     MOSUNNY   65  55  70 E7        30.06S
NEWTON         MOSUNNY   64  54  68 E7        30.09S
PARSONS        SUNNY     69  67  93 N3        30.08S
WICHITA INTL   PTSUNNY   66  60  81 E8        30.06R
WICHITA JABRA  MOSUNNY   64  58  80 E6        30.06R
WINFIELD       PTSUNNY   67  61  81 NE5       30.06F
$$

KSZ007>012-019>026-033>040-048>060-102>105-271400-
NORTHEAST KANSAS

CITY           SKY/WX    TMP DP  RH WIND       PRES   REMARKS
CONCORDIA      SUNNY     62  54  74 CALM      30.08R
EMPORIA        SUNNY     64  58  80 CALM      30.07S
LAWRENCE       SUNNY     62  58  86 CALM      30.08R
MANHATTAN      MOSUNNY   59  56  89 CALM      30.08R
OLATHE IND     SUNNY     65  58  78 W3        30.08R
OLATHE EXE     SUNNY     66  58  75 CALM      30.06S
SALINA         MOSUNNY   64  56  75 CALM      30.08R
TOPEKA BILLARD SUNNY     64  58  80 CALM      30.08R
TOPEKA FORBES  SUNNY     64  57  78 CALM      30.08R
$$


USA.gov is the U.S. government's official web portal to all federal, state and local government web resources and services.